Location: Kamms Corner
(44.7255°N, 108.9326°W)
Time: 07:58:09
(UTC+00:00)

X-37B - Visible Passes

Search period start: 24 January 2022 00:00
Search period end: 03 February 2022 00:00
Orbit: 334 x 337 km, 45.0° (Epoch: 11 January)

Date Brightness Start Highest point End Pass type
(mag) Time Alt. Az. Time Alt. Az. Time Alt. Az.
26 Jan 3.0 02:07:03 10° SSW 02:07:37 13° S 02:07:37 13° S visible
27 Jan 3.0 02:26:37 10° SW 02:27:26 17° SW 02:27:26 17° SW visible
28 Jan 2.4 01:12:30 10° SSW 01:14:27 17° SSE 01:15:56 12° ESE visible
28 Jan 3.7 02:46:46 10° WSW 02:47:10 13° WSW 02:47:10 13° WSW visible
29 Jan 1.3 01:32:02 10° SW 01:34:40 35° SSE 01:35:37 26° ESE visible
30 Jan 0.3 01:52:12 10° WSW 01:55:01 66° SSE 01:55:16 61° SE visible
31 Jan 1.1 02:12:37 10° W 02:14:53 52° W 02:14:53 52° W visible
01 Feb 0.5 00:57:38 10° WSW 01:00:27 65° SSE 01:03:15 10° E visible
01 Feb 2.6 02:33:05 10° W 02:34:29 25° W 02:34:29 25° W visible
02 Feb 0.2 01:18:03 10° W 01:20:53 86° NNW 01:22:51 18° E visible
02 Feb 3.7 02:53:32 10° W 02:54:05 14° W 02:54:05 14° W visible
